indice_tiempo,nivel_general
2015-12-01,100.0
2016-01-01,109.10494620714626
2016-02-01,114.57440926480469
2016-03-01,117.42553294389825
2016-04-01,119.51423520831388
2016-05-01,122.67387386683416
2016-06-01,127.06750244210113
2016-07-01,130.71192865279744
2016-08-01,131.04242882039952
2016-09-01,130.63933068593482
2016-10-01,131.7353703131212
2016-11-01,132.91599037640216
2016-12-01,134.0117403057501
2017-01-01,136.32418678316054
2017-02-01,137.90396980421264
2017-03-01,138.18115922563598
2017-04-01,138.33683636670085
2017-05-01,139.83805141563747
2017-06-01,142.40049184716966
2017-07-01,146.27948426013805
2017-08-01,149.16946005506585
2017-09-01,150.7547006481232
2017-10-01,153.15230716553157
2017-11-01,155.26234117223927
2017-12-01,158.00554922249384
2018-01-01,165.95917697425546
2018-02-01,175.23832096362028
2018-03-01,179.47409146202213
2018-04-01,183.14914882107112
2018-05-01,198.488640035665
2018-06-01,210.63384954274397
2018-07-01,219.7429968386908
2018-08-01,230.6082956258703
2018-09-01,268.05808967532295
2018-10-01,275.0517896285252
2018-11-01,273.3188529858695
2018-12-01,277.3748205042728
2019-01-01,279.2786654883156
2019-02-01,288.3266584716125
2019-03-01,299.58256055998663
2019-04-01,312.7440073526033
2019-05-01,329.239793617441
2019-06-01,335.51967795548507
2019-07-01,334.82830201012837
2019-08-01,372.6759147768053
2019-09-01,389.62456323334175
2019-10-01,402.818055641121
2019-11-01,423.7004828157703
2019-12-01,438.1215750221149
2020-01-01,446.3986607753099
2020-02-01,451.38824625972376
2020-03-01,452.9981479691195
2020-04-01,446.84813214540725
2020-05-01,448.2205777428849
2020-06-01,465.96775419429196
2020-07-01,484.4842513526904
2020-08-01,506.1752049812817
2020-09-01,528.7906030779528
2020-10-01,560.7587638054954
2020-11-01,587.636548819577
2020-12-01,614.8163762512105
2021-01-01,654.3954835239082
2021-02-01,689.3039155641152
2021-03-01,712.3799990825229
2021-04-01,748.0440866065479
2021-05-01,773.8208984589734
2021-06-01,787.2916859179127
2021-07-01,803.2586965668369
2021-08-01,825.5414186481856
2021-09-01,848.9440375186215
2021-10-01,872.7514986457011
2021-11-01,898.5962275308166
2021-12-01,922.0585268964716
2022-01-01,963.5584122962124
2022-02-01,1014.9647548921288
2022-03-01,1097.2172689881286
2022-04-01,1154.7802413595289
2022-05-01,1213.0152279005529
2022-06-01,1262.6658880123737
2022-07-01,1336.733604219257
2022-08-01,1441.3368187760238
2022-09-01,1533.3595334397949
2022-10-01,1594.5121482181569
2022-11-01,1704.7884832707687
2022-12-01,1827.8979255324616
2023-01-01,1948.4094914245704
2023-02-01,2073.4380892348836
2023-03-01,2145.581512783288
2023-04-01,2293.194896957186
2023-05-01,2448.5825560430108
2023-06-01,2609.1635302293735
2023-07-01,2776.9972224760068
2023-08-01,3274.119745282359
2023-09-01,3624.9112722257123
2023-10-01,3906.7430692172256
2023-11-01,4364.215945382387
2023-12-01,6585.555964154312
2024-01-01,7734.235715446585
2024-02-01,8409.36914405201
2024-03-01,8832.739229279172
